Regional Weather Roundup
Issued by NWS State College, PA

Home | Current Version | Previous Version | Text Only | Print | Product List | Glossary Off
Versions: 1 2 3 4 5 6 7 8 9 10 11 12 13 14 15 16 17 18 19 20 21 22 23 24 25 26 27 28 29 30 31 32 33 34 35 36 37 38 39 40 41 42 43 44 45 46 47 48 49 50

000
ASUS41 KCTP 281003
RWRCTP

REGIONAL WEATHER ROUNDUP
NATIONAL WEATHER SERVICE STATE COLLEGE PA
600 AM EDT THU MAY 28 2015

Note: "fair" indicates few or no clouds below 12,000 feet with no
significant weather and/or obstructions to visibility.

* = STATION THAT DOES NOT REPORT PRECIPITATION /E.G. RAIN...SNOW...ETC/
    THUNDER OR FOG.

PAZ002>004-007>009-013>016-020>023-029>032-281100-
WESTERN PENNSYLVANIA

CITY           SKY/WX    TMP DP  RH WIND       PRES   REMARKS
ERIE           CLEAR     59  54  83 W5        30.18R
MEADVILLE      MOCLDY    61  59  93 NW5       30.19R FOG
FRANKLIN*      CLOUDY    61  57  88 NW5       30.21R
NEW CASTLE     PTSUNNY   60  60 100 CALM      30.20R
BEAVER COUNTY  NOT AVBL
BUTLER*          N/A     57  55  94 CALM      30.21R VSB 1/4
PITTSBURGH INT MOCLDY    61  58  90 CALM      30.19R
PITTSBURGH     CLEAR     65  56  72 S3        30.17R
INDIANA*       MOCLDY    59  59 100 CALM      30.22R
LATROBE        PTCLDY    63  63 100 CALM      30.20R
WASHINGTON CO* CLEAR     57  55  94 CALM      30.20R
$$

PAZ004>006-010>012-017>019-024>028-033>037-041-042-045-046-049>053-281100-
CENTRAL PENNSYLVANIA

CITY           SKY/WX    TMP DP  RH WIND       PRES   REMARKS
BRADFORD       CLOUDY    60  58  92 VRB6      30.18R
DUBOIS         MOCLDY    59  57  93 SW6       30.19R FOG
CLEARFIELD     MOCLDY    60  57  89 CALM      30.19R
JOHNSTOWN      MOCLDY    63  57  81 SW6       30.20R
ALTOONA        MOCLDY    68  58  70 W7        30.18R
STATE COLLEGE  CLEAR     61  59  94 CALM      30.17R
WILLIAMSPORT   CLEAR     63  61  93 NW3       30.12S
SELINSGROVE    PTCLDY    67  65  93 CALM      30.15R FOG
FT INDIANTOWN  FOG       61  61 100 NW2       30.14R VSB 1/2
CAPITAL CITY   PTCLDY    65  63  93 W3        30.14R FOG
HARRISBURG     MOCLDY    67  64  90 CALM      30.13R FOG
YORK           FOG       64  64 100 CALM      30.15R VSB 1
$$

PAZ038>040-043-044-047-048-054-055-060>062-067>071-281100-
EASTERN PENNSYLVANIA

CITY           SKY/WX    TMP DP  RH WIND       PRES   REMARKS
SCRANTON       CLEAR     64  61  90 CALM      30.15R FOG
MOUNT POCONO   CLEAR     63  60  90 W6        30.17S FOG
ALLENTOWN      CLOUDY    66  65  96 CALM      30.14S FOG
QUAKERTOWN*    CLOUDY    68  68 100 S3        30.16R
READING        CLOUDY    68  66  93 CALM      30.14R
LANCASTER      CLOUDY    68  66  93 NE3       30.15R FOG
COATESVILLE    CLOUDY    70  70 100 CALM      30.17R FOG
POTTSTOWN      CLOUDY    69  69 100 CALM      30.16R FOG
BLUE BELL      CLOUDY    72  70  94 SW5       30.15R
DOYLESTOWN     CLOUDY    68  68 100 SW3       30.15R
WILLOW GROVE   NOT AVBL
NORTH PHILA    PTCLDY    71  65  81 CALM      30.16R
PHILADELPHIA   CLOUDY    71  67  87 S3        30.15R
$$



USA.gov is the U.S. government's official web portal to all federal, state and local government web resources and services.